Tracking 18945 objects as of 20-Jan-2018
HD Live streaming from Space Station
objects crossing your sky now

FENGYUN 1C DEB

Track FENGYUN 1C DEB now!
10-day predictions


NORAD ID: 30611
Int'l Code: 1999-025AMS
Perigee: 425.2 km
Apogee: 678.8 km
Inclination: 98.6 °
Period: 95.5 minutes
Semi major axis: 6922 km
RCS: 0.0108 m2 (small)
Launch date: May 10, 1999
Source: People's Republic of China (PRC)
Launch site: Taiyaun Space Center, China (TSC)

Note: This is SATELLITE DEBRIS
aabbcc
Your satellite tracking list
Your tracking list is empty




NASA's NSSDC Master Catalog

Two Line Element Set (TLE):
1 30611U 99025AMS 18020.34438482  .00002093  00000-0  99037-4 0  9999
2 30611  98.6193 339.6550 0183181 144.2803 217.0840 15.07176903591639
Source of the keplerian elements: AFSPC